Time,TemperatureF,DewpointF,PressureIn,WindDirection,WindDirectionDegrees,WindSpeedMPH,WindSpeedGustMPH,Humidity,HourlyPrecipIn,Conditions,Clouds,dailyrainin,SolarRadiationWatts/m^2,SoftwareType,DateUTC
2013-05-31 00:12:00,42.0,19.0,-100.00,West,273,3.0,7.0,39,0.00,,,0.00,0.000000,,2013-05-31 06:12:00,
2013-05-31 00:21:00,42.0,19.0,-100.00,West,273,3.0,7.0,39,0.00,,,0.00,0.000000,,2013-05-31 06:21:00,
2013-05-31 00:31:00,42.0,19.0,-100.00,West,273,3.0,7.0,39,0.00,,,0.00,0.000000,,2013-05-31 06:31:00,
2013-05-31 00:41:00,42.0,19.0,-100.00,West,273,3.0,7.0,39,0.00,,,0.00,0.000000,,2013-05-31 06:41:00,
2013-05-31 00:50:00,42.0,20.0,-100.00,West,260,5.0,10.0,41,0.00,,,0.00,0.000000,,2013-05-31 06:50:00,
2013-05-31 01:11:00,42.0,20.0,-100.00,West,260,5.0,10.0,41,0.00,,,0.00,0.000000,,2013-05-31 07:11:00,
2013-05-31 01:21:00,42.0,20.0,-100.00,West,260,5.0,10.0,41,0.00,,,0.00,0.000000,,2013-05-31 07:21:00,
2013-05-31 01:32:00,42.0,20.0,-100.00,West,260,5.0,10.0,41,0.00,,,0.00,0.000000,,2013-05-31 07:32:00,
2013-05-31 01:41:00,42.0,20.0,-100.00,West,260,5.0,10.0,41,0.00,,,0.00,0.000000,,2013-05-31 07:41:00,
2013-05-31 01:50:00,40.0,20.0,-100.00,WSW,248,5.0,10.0,44,0.00,,,0.00,0.000000,,2013-05-31 07:50:00,
2013-05-31 02:11:00,40.0,20.0,-100.00,WSW,248,5.0,10.0,44,0.00,,,0.00,0.000000,,2013-05-31 08:11:00,
2013-05-31 02:21:00,40.0,20.0,-100.00,WSW,248,5.0,10.0,44,0.00,,,0.00,0.000000,,2013-05-31 08:21:00,
2013-05-31 02:31:00,40.0,20.0,-100.00,WSW,248,5.0,10.0,44,0.00,,,0.00,0.000000,,2013-05-31 08:31:00,
2013-05-31 02:42:00,40.0,20.0,-100.00,WSW,248,5.0,10.0,44,0.00,,,0.00,0.000000,,2013-05-31 08:42:00,
2013-05-31 02:50:00,38.0,21.0,-100.00,WSW,249,5.0,9.0,49,0.00,,,0.00,0.000000,,2013-05-31 08:50:00,
2013-05-31 03:11:00,38.0,21.0,-100.00,WSW,249,5.0,9.0,49,0.00,,,0.00,0.000000,,2013-05-31 09:11:00,
2013-05-31 03:21:00,38.0,21.0,-100.00,WSW,249,5.0,9.0,49,0.00,,,0.00,0.000000,,2013-05-31 09:21:00,
2013-05-31 03:43:00,38.0,21.0,-100.00,WSW,249,5.0,9.0,49,0.00,,,0.00,0.000000,,2013-05-31 09:43:00,
2013-05-31 03:50:00,38.0,21.0,-100.00,West,260,6.0,7.0,49,0.00,,,0.00,0.000000,,2013-05-31 09:50:00,
2013-05-31 04:12:00,38.0,21.0,-100.00,West,260,6.0,7.0,49,0.00,,,0.00,0.000000,,2013-05-31 10:12:00,
2013-05-31 04:22:00,38.0,21.0,-100.00,West,260,6.0,7.0,49,0.00,,,0.00,0.000000,,2013-05-31 10:22:00,
2013-05-31 04:32:00,38.0,21.0,-100.00,West,260,6.0,7.0,49,0.00,,,0.00,0.000000,,2013-05-31 10:32:00,
2013-05-31 04:42:00,38.0,21.0,-100.00,West,260,6.0,7.0,49,0.00,,,0.00,0.000000,,2013-05-31 10:42:00,
2013-05-31 04:50:00,40.0,19.0,-100.00,WNW,300,6.0,11.0,42,0.00,,,0.00,0.000000,,2013-05-31 10:50:00,
2013-05-31 05:11:00,40.0,19.0,-100.00,WNW,300,6.0,11.0,42,0.00,,,0.00,0.000000,,2013-05-31 11:11:00,
2013-05-31 05:22:00,40.0,19.0,-100.00,WNW,300,6.0,11.0,42,0.00,,,0.00,0.000000,,2013-05-31 11:22:00,
2013-05-31 05:32:00,40.0,19.0,-100.00,WNW,300,6.0,11.0,42,0.00,,,0.00,0.000000,,2013-05-31 11:32:00,
2013-05-31 05:42:00,40.0,19.0,-100.00,WNW,300,6.0,11.0,42,0.00,,,0.00,0.000000,,2013-05-31 11:42:00,
2013-05-31 05:50:00,47.0,21.0,-100.00,WNW,296,10.0,28.0,36,0.00,,,0.00,0.000000,,2013-05-31 11:50:00,
2013-05-31 06:11:00,47.0,21.0,-100.00,WNW,296,10.0,28.0,36,0.00,,,0.00,0.000000,,2013-05-31 12:11:00,
2013-05-31 06:21:00,47.0,21.0,-100.00,WNW,296,10.0,28.0,36,0.00,,,0.00,0.000000,,2013-05-31 12:21:00,
2013-05-31 06:31:00,47.0,21.0,-100.00,WNW,296,10.0,28.0,36,0.00,,,0.00,0.000000,,2013-05-31 12:31:00,
2013-05-31 06:41:00,47.0,21.0,-100.00,WNW,296,10.0,28.0,36,0.00,,,0.00,0.000000,,2013-05-31 12:41:00,
2013-05-31 06:50:00,46.0,22.0,-100.00,West,261,4.0,18.0,38,0.00,,,0.00,27.000000,,2013-05-31 12:50:00,
2013-05-31 07:11:00,46.0,22.0,-100.00,West,261,4.0,18.0,38,0.00,,,0.00,27.000000,,2013-05-31 13:11:00,
2013-05-31 07:21:00,46.0,22.0,-100.00,West,261,4.0,18.0,38,0.00,,,0.00,27.000000,,2013-05-31 13:21:00,
2013-05-31 07:32:00,46.0,22.0,-100.00,West,261,4.0,18.0,38,0.00,,,0.00,27.000000,,2013-05-31 13:32:00,
2013-05-31 07:42:00,46.0,22.0,-100.00,West,261,4.0,18.0,38,0.00,,,0.00,27.000000,,2013-05-31 13:42:00,
2013-05-31 07:50:00,53.0,21.0,-100.00,WNW,296,7.0,12.0,28,0.00,,,0.00,277.000000,,2013-05-31 13:50:00,
2013-05-31 08:11:00,53.0,21.0,-100.00,WNW,296,7.0,12.0,28,0.00,,,0.00,277.000000,,2013-05-31 14:11:00,
2013-05-31 08:21:00,53.0,21.0,-100.00,WNW,296,7.0,12.0,28,0.00,,,0.00,277.000000,,2013-05-31 14:21:00,
2013-05-31 08:32:00,53.0,21.0,-100.00,WNW,296,7.0,12.0,28,0.00,,,0.00,277.000000,,2013-05-31 14:32:00,
2013-05-31 08:41:00,53.0,21.0,-100.00,WNW,296,7.0,12.0,28,0.00,,,0.00,277.000000,,2013-05-31 14:41:00,
2013-05-31 08:50:00,55.0,19.0,-100.00,NW,313,9.0,20.0,24,0.00,,,0.00,516.000000,,2013-05-31 14:50:00,
2013-05-31 09:11:00,55.0,19.0,-100.00,NW,313,9.0,20.0,24,0.00,,,0.00,516.000000,,2013-05-31 15:11:00,
2013-05-31 09:21:00,55.0,19.0,-100.00,NW,313,9.0,20.0,24,0.00,,,0.00,516.000000,,2013-05-31 15:21:00,
2013-05-31 09:33:00,55.0,19.0,-100.00,NW,313,9.0,20.0,24,0.00,,,0.00,516.000000,,2013-05-31 15:33:00,
2013-05-31 09:43:00,55.0,19.0,-100.00,NW,313,9.0,20.0,24,0.00,,,0.00,516.000000,,2013-05-31 15:43:00,
2013-05-31 09:50:00,56.0,20.0,-100.00,WNW,292,8.0,18.0,24,0.00,,,0.00,757.000000,,2013-05-31 15:50:00,
2013-05-31 10:12:00,56.0,20.0,-100.00,WNW,292,8.0,18.0,24,0.00,,,0.00,757.000000,,2013-05-31 16:12:00,
2013-05-31 10:22:00,56.0,20.0,-100.00,WNW,292,8.0,18.0,24,0.00,,,0.00,757.000000,,2013-05-31 16:22:00,
2013-05-31 10:33:00,56.0,20.0,-100.00,WNW,292,8.0,18.0,24,0.00,,,0.00,757.000000,,2013-05-31 16:33:00,
2013-05-31 10:42:00,56.0,20.0,-100.00,WNW,292,8.0,18.0,24,0.00,,,0.00,757.000000,,2013-05-31 16:42:00,
2013-05-31 10:50:00,60.0,21.0,-100.00,NW,311,8.0,18.0,22,0.00,,,0.00,967.000000,,2013-05-31 16:50:00,
2013-05-31 11:12:00,60.0,21.0,-100.00,NW,311,8.0,18.0,22,0.00,,,0.00,967.000000,,2013-05-31 17:12:00,
2013-05-31 11:22:00,60.0,21.0,-100.00,NW,311,8.0,18.0,22,0.00,,,0.00,967.000000,,2013-05-31 17:22:00,
2013-05-31 11:32:00,60.0,21.0,-100.00,NW,311,8.0,18.0,22,0.00,,,0.00,967.000000,,2013-05-31 17:32:00,
2013-05-31 11:42:00,60.0,21.0,-100.00,NW,311,8.0,18.0,22,0.00,,,0.00,967.000000,,2013-05-31 17:42:00,
2013-05-31 11:50:00,60.0,15.0,-100.00,WNW,303,10.0,22.0,17,0.00,,,0.00,1125.000000,,2013-05-31 17:50:00,
2013-05-31 12:11:00,60.0,15.0,-100.00,WNW,303,10.0,22.0,17,0.00,,,0.00,1125.000000,,2013-05-31 18:11:00,
2013-05-31 12:22:00,60.0,15.0,-100.00,WNW,303,10.0,22.0,17,0.00,,,0.00,1125.000000,,2013-05-31 18:22:00,
2013-05-31 12:31:00,60.0,15.0,-100.00,WNW,303,10.0,22.0,17,0.00,,,0.00,1125.000000,,2013-05-31 18:31:00,
2013-05-31 12:41:00,60.0,15.0,-100.00,WNW,303,10.0,22.0,17,0.00,,,0.00,1125.000000,,2013-05-31 18:41:00,
2013-05-31 12:50:00,60.0,18.0,-100.00,WSW,247,5.0,23.0,19,0.00,,,0.00,1195.000000,,2013-05-31 18:50:00,
2013-05-31 13:11:00,60.0,18.0,-100.00,WSW,247,5.0,23.0,19,0.00,,,0.00,1195.000000,,2013-05-31 19:11:00,
2013-05-31 13:22:00,60.0,18.0,-100.00,WSW,247,5.0,23.0,19,0.00,,,0.00,1195.000000,,2013-05-31 19:22:00,
2013-05-31 13:31:00,60.0,18.0,-100.00,WSW,247,5.0,23.0,19,0.00,,,0.00,1195.000000,,2013-05-31 19:31:00,
2013-05-31 13:42:00,60.0,18.0,-100.00,WSW,247,5.0,23.0,19,0.00,,,0.00,1195.000000,,2013-05-31 19:42:00,
2013-05-31 13:50:00,62.0,19.0,-100.00,West,271,8.0,21.0,19,0.00,,,0.00,1155.000000,,2013-05-31 19:50:00,
2013-05-31 14:11:00,62.0,19.0,-100.00,West,271,8.0,21.0,19,0.00,,,0.00,1155.000000,,2013-05-31 20:11:00,
2013-05-31 14:22:00,62.0,19.0,-100.00,West,271,8.0,21.0,19,0.00,,,0.00,1155.000000,,2013-05-31 20:22:00,
2013-05-31 14:31:00,62.0,19.0,-100.00,West,271,8.0,21.0,19,0.00,,,0.00,1155.000000,,2013-05-31 20:31:00,
2013-05-31 14:41:00,62.0,19.0,-100.00,West,271,8.0,21.0,19,0.00,,,0.00,1155.000000,,2013-05-31 20:41:00,
2013-05-31 14:50:00,64.0,18.0,-100.00,West,268,8.0,22.0,17,0.00,,,0.00,1257.000000,,2013-05-31 20:50:00,
2013-05-31 15:11:00,64.0,18.0,-100.00,West,268,8.0,22.0,17,0.00,,,0.00,1257.000000,,2013-05-31 21:11:00,
2013-05-31 15:22:00,64.0,18.0,-100.00,West,268,8.0,22.0,17,0.00,,,0.00,1257.000000,,2013-05-31 21:22:00,
2013-05-31 15:32:00,64.0,18.0,-100.00,West,268,8.0,22.0,17,0.00,,,0.00,1257.000000,,2013-05-31 21:32:00,
2013-05-31 15:42:00,64.0,18.0,-100.00,West,268,8.0,22.0,17,0.00,,,0.00,1257.000000,,2013-05-31 21:42:00,
2013-05-31 15:50:00,62.0,17.0,-100.00,West,263,6.0,21.0,17,0.00,,,0.00,981.000000,,2013-05-31 21:50:00,
2013-05-31 16:12:00,62.0,17.0,-100.00,West,263,6.0,21.0,17,0.00,,,0.00,981.000000,,2013-05-31 22:12:00,
2013-05-31 16:22:00,62.0,17.0,-100.00,West,263,6.0,21.0,17,0.00,,,0.00,981.000000,,2013-05-31 22:22:00,
2013-05-31 16:33:00,62.0,17.0,-100.00,West,263,6.0,21.0,17,0.00,,,0.00,981.000000,,2013-05-31 22:33:00,
2013-05-31 16:41:00,62.0,17.0,-100.00,West,263,6.0,21.0,17,0.00,,,0.00,981.000000,,2013-05-31 22:41:00,
2013-05-31 16:50:00,65.0,16.0,-100.00,WNW,296,8.0,20.0,15,0.00,,,0.00,951.000000,,2013-05-31 22:50:00,
2013-05-31 17:12:00,65.0,16.0,-100.00,WNW,296,8.0,20.0,15,0.00,,,0.00,951.000000,,2013-05-31 23:12:00,
2013-05-31 17:21:00,65.0,16.0,-100.00,WNW,296,8.0,20.0,15,0.00,,,0.00,951.000000,,2013-05-31 23:21:00,
2013-05-31 17:32:00,65.0,16.0,-100.00,WNW,296,8.0,20.0,15,0.00,,,0.00,951.000000,,2013-05-31 23:32:00,
2013-05-31 17:42:00,65.0,16.0,-100.00,WNW,296,8.0,20.0,15,0.00,,,0.00,951.000000,,2013-05-31 23:42:00,
2013-05-31 17:50:00,64.0,14.0,-100.00,WNW,294,6.0,25.0,14,0.00,,,0.00,738.000000,,2013-05-31 23:50:00,
2013-05-31 18:11:00,64.0,14.0,-100.00,WNW,294,6.0,25.0,14,0.00,,,0.00,738.000000,,2013-06-01 00:11:00,
2013-05-31 18:22:00,64.0,14.0,-100.00,WNW,294,6.0,25.0,14,0.00,,,0.00,738.000000,,2013-06-01 00:22:00,
2013-05-31 18:31:00,64.0,14.0,-100.00,WNW,294,6.0,25.0,14,0.00,,,0.00,738.000000,,2013-06-01 00:31:00,
2013-05-31 18:42:00,64.0,14.0,-100.00,WNW,294,6.0,25.0,14,0.00,,,0.00,738.000000,,2013-06-01 00:42:00,
2013-05-31 18:50:00,62.0,11.0,-100.00,NNW,338,10.0,20.0,13,0.00,,,0.00,516.000000,,2013-06-01 00:50:00,
2013-05-31 19:11:00,62.0,11.0,-100.00,NNW,338,10.0,20.0,13,0.00,,,0.00,516.000000,,2013-06-01 01:11:00,
2013-05-31 19:21:00,62.0,11.0,-100.00,NNW,338,10.0,20.0,13,0.00,,,0.00,516.000000,,2013-06-01 01:21:00,
2013-05-31 19:32:00,62.0,11.0,-100.00,NNW,338,10.0,20.0,13,0.00,,,0.00,516.000000,,2013-06-01 01:32:00,
2013-05-31 19:42:00,62.0,11.0,-100.00,NNW,338,10.0,20.0,13,0.00,,,0.00,516.000000,,2013-06-01 01:42:00,
2013-05-31 19:50:00,58.0,4.0,-100.00,NNW,335,7.0,18.0,11,0.00,,,0.00,268.000000,,2013-06-01 01:50:00,
2013-05-31 20:11:00,58.0,4.0,-100.00,NNW,335,7.0,18.0,11,0.00,,,0.00,268.000000,,2013-06-01 02:11:00,
2013-05-31 20:21:00,58.0,4.0,-100.00,NNW,335,7.0,18.0,11,0.00,,,0.00,268.000000,,2013-06-01 02:21:00,
2013-05-31 20:32:00,58.0,4.0,-100.00,NNW,335,7.0,18.0,11,0.00,,,0.00,268.000000,,2013-06-01 02:32:00,
2013-05-31 20:42:00,58.0,4.0,-100.00,NNW,335,7.0,18.0,11,0.00,,,0.00,268.000000,,2013-06-01 02:42:00,
2013-05-31 20:50:00,49.0,3.0,-100.00,NNW,327,6.0,13.0,15,0.00,,,0.00,26.000000,,2013-06-01 02:50:00,
2013-05-31 21:11:00,49.0,3.0,-100.00,NNW,327,6.0,13.0,15,0.00,,,0.00,26.000000,,2013-06-01 03:11:00,
2013-05-31 21:21:00,49.0,3.0,-100.00,NNW,327,6.0,13.0,15,0.00,,,0.00,26.000000,,2013-06-01 03:21:00,
2013-05-31 21:33:00,49.0,3.0,-100.00,NNW,327,6.0,13.0,15,0.00,,,0.00,26.000000,,2013-06-01 03:33:00,
2013-05-31 21:43:00,49.0,3.0,-100.00,NNW,327,6.0,13.0,15,0.00,,,0.00,26.000000,,2013-06-01 03:43:00,
2013-05-31 21:50:00,47.0,3.0,-100.00,WNW,289,5.0,11.0,16,0.00,,,0.00,0.000000,,2013-06-01 03:50:00,
2013-05-31 22:12:00,47.0,3.0,-100.00,WNW,289,5.0,11.0,16,0.00,,,0.00,0.000000,,2013-06-01 04:12:00,
2013-05-31 22:23:00,47.0,3.0,-100.00,WNW,289,5.0,11.0,16,0.00,,,0.00,0.000000,,2013-06-01 04:23:00,
2013-05-31 22:33:00,47.0,3.0,-100.00,WNW,289,5.0,11.0,16,0.00,,,0.00,0.000000,,2013-06-01 04:33:00,
2013-05-31 22:42:00,47.0,3.0,-100.00,WNW,289,5.0,11.0,16,0.00,,,0.00,0.000000,,2013-06-01 04:42:00,
2013-05-31 22:50:00,45.0,5.0,-100.00,NW,309,7.0,9.0,19,0.00,,,0.00,0.000000,,2013-06-01 04:50:00,
2013-05-31 23:12:00,45.0,5.0,-100.00,NW,309,7.0,9.0,19,0.00,,,0.00,0.000000,,2013-06-01 05:12:00,
2013-05-31 23:22:00,45.0,5.0,-100.00,NW,309,7.0,9.0,19,0.00,,,0.00,0.000000,,2013-06-01 05:22:00,
2013-05-31 23:32:00,45.0,5.0,-100.00,NW,309,7.0,9.0,19,0.00,,,0.00,0.000000,,2013-06-01 05:32:00,
2013-05-31 23:42:00,45.0,5.0,-100.00,NW,309,7.0,9.0,19,0.00,,,0.00,0.000000,,2013-06-01 05:42:00,
2013-05-31 23:50:00,47.0,8.0,-100.00,NNW,327,8.0,14.0,20,0.00,,,0.00,0.000000,,2013-06-01 05:50:00,